[[{"header":{"parameterUnit":"m.s-1","parameterCategory":1,"la1":30.2991,"la2":30.254,"lo1":-89.0895,"lo2":-89.0444,"dy":0.0017,"dx":0.0017,"nx":28,"ny":28,"refTime":"2025-03-01T09:00:00:Z","depth":0,"parameterNumber":2,"parameterNumberName":"U-component_of_WINDS"},"data":[0,0,0,0,0,0,0,0,0,0,0,0,0,0,0,0,0,0,0,0,0,0,0,0,0,0,0,0,0,0,0,0,0,0,0,0,0,0,0,0,0,0,0,0,0,0,0,0,0,0,0,0,0,0,0,0,0,0,0.8777,0.8777,0,0.8778,0.8778,0.8778,0.8781,0.8781,0.8781,0.8781,0.8782,0.8782,0.8782,0,0,0,0,0,0,0,0,0,0,0,0,0,0.8777,0.8777,0.8777,0.8777,0.8777,0.8778,0.8778,0.8778,0.8781,0.8781,0.8781,0.8781,0.8782,0.8782,0.8782,0,0,0,0,0,0,0,0,0,0,0,0,0,0.8777,0.8777,0.8777,0.8779,0.8779,0.8778,0.8778,0.8778,0.8781,0.8781,0.8781,0.8781,0.8782,0.8782,0.8782,0.8779,0,0,0.8782,0.8782,0,0,0,0,0,0,0,0,0.8777,0.8777,0.8778,0.8779,0.8779,0.878,0.8778,0.8779,0.8781,0.878,0.8781,0.8782,0.8781,0.8781,0.8781,0.8779,0.8779,0.8782,0.8782,0.8781,0.8781,0,0,0,0,0,0,0,0.8777,0.8777,0.8777,0.8778,0.8779,0.8779,0.8779,0.8778,0.878,0.878,0.8781,0.8781,0.8781,0.8781,0.8781,0.8779,0.8782,0.8782,0.8781,0.8781,0.8776,0.8776,0,0,0,0,0,0,0.8777,0.8777,0.8777,0.8778,0.8778,0.8779,0.8779,0.8779,0.878,0.878,0.8781,0.8781,0.8781,0.8781,0.8781,0.8778,0.8781,0.8781,0.8781,0.8776,0.8776,0.8776,0,0,0,0,0,0,0.8777,0.8777,0.8777,0.8777,0.8778,0.8779,0.8779,0.8779,0.8779,0.878,0.8781,0.878,0.8781,0.8781,0.878,0.8778,0.8781,0.8781,0.8776,0.8776,0.8776,0.8773,0,0,0,0,0,0,0.8777,0.8777,0.8776,0.8777,0.8778,0.8776,0.8779,0.8779,0.8779,0.8779,0.878,0.878,0.8781,0.878,0.878,0.8778,0.8781,0.8776,0.8776,0.8776,0.8773,0.8773,0.8772,0,0,0,0,0,0.8777,0.8775,0.8776,0.8776,0.8777,0.8776,0.8776,0.8778,0.8779,0.8778,0.8779,0.878,0.8779,0.878,0.878,0.8778,0.8776,0.8776,0.8776,0.8773,0.8773,0.8772,0,0,0,0,0,0,0.8773,0.8775,0.8776,0.8775,0.8775,0.8777,0.8776,0.8777,0.8777,0.8777,0.8779,0.8779,0.8777,0.8778,0.8779,0.8776,0.8778,0.8778,0.8776,0.8775,0.8775,0.8774,0.8781,0,0,0,0,0,0.8772,0.8772,0.8774,0.8772,0.8772,0.8774,0.8774,0.8775,0.8775,0.8776,0.8776,0.8776,0.8776,0.8776,0.8775,0.8773,0.8773,0.8772,0.8772,0.8771,0.8771,0.877,0.8769,0.8775,0.8775,0.8775,0,0,0.877,0.8771,0.8771,0.8771,0.8772,0.8771,0.8774,0.8773,0.8773,0.8775,0.8774,0.8775,0.8775,0.8773,0.8773,0.8774,0.8769,0.8771,0.8771,0.8771,0.877,0.8769,0.8768,0.8775,0.8775,0.8775,0,0,0.8766,0.8767,0.8766,0.8766,0.8767,0.8768,0.8768,0.8769,0.877,0.8769,0.8771,0.877,0.8769,0.877,0.877,0.8766,0.8767,0.8766,0.8763,0.8762,0.8762,0.8761,0.876,0.8759,0.8766,0.8766,0.8766,0,0.8763,0.8763,0.8765,0.8764,0.8764,0.8767,0.8766,0.8766,0.8767,0.8767,0.8768,0.8767,0.8768,0.8766,0.8765,0.8765,0.8765,0.8766,0.8762,0.8761,0.8761,0.876,0.8759,0.8765,0.8765,0.8765,0.8766,0,0.8759,0.8759,0.8758,0.8759,0.8759,0.8758,0.876,0.876,0.8761,0.8762,0.8761,0.8761,0.8761,0.8761,0.8762,0.876,0.876,0.8762,0.8763,0.876,0.8759,0.8758,0.8765,0.8765,0.8765,0.8765,0,0,0.8752,0.8755,0.8754,0.8755,0.8756,0.8756,0.8755,0.8755,0.8755,0.8755,0.8755,0.8754,0.8756,0.8756,0.8757,0.8756,0.8753,0.8757,0.8757,0.8756,0.875,0.8749,0.8748,0.8754,0.8754,0.8754,0.875,0,0.8748,0.8747,0.8749,0.8747,0.8747,0.875,0.8749,0.875,0.8751,0.8751,0.8752,0.8751,0.8753,0.8753,0.8753,0.8753,0.8752,0.8754,0.8753,0.8753,0.8752,0.8747,0.8746,0.8742,0.8749,0.8749,0.8749,0,0.8743,0.8744,0.8742,0.8744,0.8744,0.8743,0.8744,0.8743,0.8744,0.8745,0.8745,0.8747,0.8746,0.8748,0.8747,0.8749,0.8748,0.8749,0.8749,0.8748,0.8751,0.8747,0.8741,0.874,0.8749,0.8749,0.8749,0,0.8738,0.8738,0.8737,0.8738,0.874,0.8739,0.874,0.8741,0.8741,0.8742,0.8742,0.8742,0.8742,0.8742,0.8743,0.8745,0.8742,0.8744,0.8742,0.8742,0.8741,0.8741,0.8735,0.8742,0.8742,0.8742,0.8742,0,0.8733,0.8732,0.8735,0.8734,0.8733,0.8736,0.8734,0.8736,0.8737,0.8736,0.8738,0.8738,0.874,0.874,0.8741,0.874,0.874,0.874,0.8741,0.874,0.874,0.8739,0.874,0.8742,0.8742,0.8742,0.8742,0,0.8726,0.8729,0.8728,0.873,0.8731,0.873,0.8732,0.8731,0.8732,0.8732,0.8732,0.8734,0.8734,0.8735,0.8735,0.8736,0.8734,0.8735,0.8734,0.8734,0.8732,0.8732,0.8725,0.8724,0.8732,0.8732,0.8732,0,0.8723,0.8722,0.8724,0.8725,0.8725,0.8725,0.8725,0.8728,0.8728,0.8729,0.8729,0.8729,0.8729,0.8728,0.873,0.873,0.873,0.8728,0.873,0.873,0.873,0.873,0.873,0.8727,0.8727,0.8727,0.8727,0,0.8716,0.8717,0.8718,0.8719,0.8719,0.872,0.872,0.872,0.8723,0.8723,0.8723,0.8723,0.8724,0.8724,0.8724,0.8725,0.8726,0.8727,0.8726,0.8725,0.8724,0.8724,0.8732,0.8727,0.8727,0.8727,0.8727,0.8727,0.8711,0.871,0.8712,0.8712,0.8713,0.8714,0.8714,0.8715,0.8716,0.8716,0.8718,0.8718,0.8719,0.8719,0.872,0.872,0.8721,0.872,0.872,0.872,0.8719,0.8725,0.872,0.872,0.872,0.872,0.872,0,0.8704,0.8705,0.8706,0.8707,0.8707,0.871,0.8711,0.8711,0.871,0.8712,0.8712,0.8712,0.8712,0.8714,0.8714,0.8713,0.8714,0.8713,0.8713,0.8713,0.8718,0.8718,0.8713,0.8713,0.8713,0.8713,0.8713,0.8713,0.87,0.87,0.8701,0.8701,0.8702,0.8702,0.8703,0.8704,0.8704,0.8704,0.8705,0.8706,0.8707,0.8708,0.8708,0.8708,0.8708,0.8707,0.8708,0.8712,0.8713,0.8713,0.8714,0.8707,0.8707,0.8703,0.8703,0.8703]},{"header":{"parameterUnit":"m.s-1","parameterCategory":1,"la1":30.2991,"la2":30.254,"lo1":-89.0895,"lo2":-89.0444,"dy":0.0017,"dx":0.0017,"nx":28,"ny":28,"refTime":"2025-03-01T09:00:00:Z","depth":0,"parameterNumber":3,"parameterNumberName":"V-component_of_WINDS"},"data":[0,0,0,0,0,0,0,0,0,0,0,0,0,0,0,0,0,0,0,0,0,0,0,0,0,0,0,0,0,0,0,0,0,0,0,0,0,0,0,0,0,0,0,0,0,0,0,0,0,0,0,0,0,0,0,0,0,0,-0.5328,-0.5327,0,-0.5284,-0.5283,-0.5283,-0.5237,-0.5236,-0.5236,-0.5235,-0.5189,-0.5188,-0.5188,0,0,0,0,0,0,0,0,0,0,0,0,0,-0.5372,-0.5371,-0.5328,-0.5327,-0.5327,-0.5284,-0.5283,-0.5283,-0.5237,-0.5236,-0.5236,-0.5235,-0.5189,-0.5188,-0.5188,0,0,0,0,0,0,0,0,0,0,0,0,0,-0.5343,-0.5371,-0.5328,-0.5299,-0.5296,-0.5284,-0.5283,-0.5283,-0.5237,-0.5236,-0.5235,-0.5235,-0.5189,-0.5188,-0.5188,-0.5201,0,0,-0.5185,-0.5184,0,0,0,0,0,0,0,0,-0.5345,-0.5341,-0.5304,-0.5301,-0.5298,-0.5265,-0.5282,-0.5255,-0.5238,-0.526,-0.5235,-0.5234,-0.5215,-0.5212,-0.5206,-0.5198,-0.5196,-0.5185,-0.5184,-0.5184,-0.5183,0,0,0,0,0,0,0,-0.5347,-0.5343,-0.531,-0.5303,-0.5299,-0.5288,-0.5283,-0.5277,-0.5243,-0.5258,-0.5254,-0.525,-0.5213,-0.5207,-0.5204,-0.5196,-0.5185,-0.5184,-0.5183,-0.5183,-0.5198,-0.5199,0,0,0,0,0,0,-0.5353,-0.5345,-0.5312,-0.5309,-0.5319,-0.5288,-0.5282,-0.5276,-0.5243,-0.5237,-0.525,-0.5248,-0.5209,-0.5205,-0.5202,-0.5216,-0.5184,-0.5183,-0.5182,-0.5197,-0.5198,-0.5199,0,0,0,0,0,0,-0.5354,-0.5351,-0.5314,-0.5326,-0.532,-0.5288,-0.5282,-0.5276,-0.527,-0.5238,-0.5231,-0.525,-0.5208,-0.5204,-0.5202,-0.5214,-0.5182,-0.5181,-0.5196,-0.5197,-0.5198,-0.5243,0,0,0,0,0,0,-0.5356,-0.5351,-0.5356,-0.5327,-0.532,-0.5314,-0.5283,-0.5276,-0.5268,-0.5264,-0.5236,-0.523,-0.5207,-0.5203,-0.5201,-0.5212,-0.5181,-0.5194,-0.5196,-0.5198,-0.524,-0.5245,-0.525,0,0,0,0,0,-0.5357,-0.537,-0.5356,-0.5353,-0.5325,-0.5315,-0.5311,-0.5284,-0.5269,-0.5274,-0.5253,-0.5231,-0.5213,-0.5203,-0.52,-0.5211,-0.5193,-0.5196,-0.5198,-0.5238,-0.5244,-0.525,0,0,0,0,0,0,-0.5401,-0.5365,-0.535,-0.5353,-0.5338,-0.5307,-0.5312,-0.5292,-0.528,-0.5276,-0.5243,-0.5237,-0.5239,-0.5225,-0.5215,-0.5222,-0.52,-0.5202,-0.5231,-0.5238,-0.5243,-0.5246,-0.518,0,0,0,0,0,-0.5411,-0.5406,-0.5375,-0.538,-0.5373,-0.5344,-0.5338,-0.5319,-0.5301,-0.5294,-0.5274,-0.5257,-0.5247,-0.5242,-0.5231,-0.5238,-0.5231,-0.5244,-0.5249,-0.5253,-0.5255,-0.5258,-0.5263,-0.5206,-0.5206,-0.5206,0,0,-0.5431,-0.5411,-0.541,-0.5389,-0.5374,-0.5369,-0.5339,-0.5334,-0.533,-0.5293,-0.529,-0.5275,-0.5254,-0.5256,-0.5257,-0.5244,-0.5269,-0.5256,-0.526,-0.5259,-0.5261,-0.5266,-0.5271,-0.5208,-0.5207,-0.5207,0,0,-0.5466,-0.545,-0.5454,-0.544,-0.5419,-0.5399,-0.54,-0.5373,-0.5361,-0.5358,-0.533,-0.5325,-0.5309,-0.5295,-0.5287,-0.5318,-0.5297,-0.5315,-0.5341,-0.5345,-0.5349,-0.5353,-0.5365,-0.5369,-0.5317,-0.5317,-0.5317,0,-0.5494,-0.5486,-0.5458,-0.5456,-0.5448,-0.5415,-0.5418,-0.5406,-0.5382,-0.5377,-0.5364,-0.5344,-0.5328,-0.5327,-0.5335,-0.5328,-0.5328,-0.5318,-0.5351,-0.5355,-0.5358,-0.5368,-0.5373,-0.5319,-0.5319,-0.5319,-0.5319,0,-0.5521,-0.5516,-0.5521,-0.55,-0.5492,-0.5493,-0.5465,-0.5461,-0.5443,-0.5425,-0.5422,-0.5401,-0.5386,-0.5385,-0.5367,-0.5382,-0.5375,-0.5357,-0.5334,-0.5366,-0.5375,-0.5379,-0.5323,-0.5322,-0.5321,-0.5321,0,0,-0.5581,-0.5545,-0.5548,-0.5538,-0.5513,-0.5508,-0.5507,-0.5493,-0.549,-0.5475,-0.5474,-0.5462,-0.5445,-0.5435,-0.5416,-0.5419,-0.5445,-0.54,-0.5399,-0.5409,-0.5461,-0.5475,-0.548,-0.5431,-0.5432,-0.5432,-0.5463,0,-0.5612,-0.5609,-0.5584,-0.5588,-0.5584,-0.5553,-0.5552,-0.5537,-0.552,-0.5513,-0.5495,-0.5487,-0.5466,-0.546,-0.5461,-0.5442,-0.5455,-0.5439,-0.543,-0.543,-0.5436,-0.5484,-0.5499,-0.5528,-0.5466,-0.5467,-0.5467,0,-0.5647,-0.5635,-0.5639,-0.5614,-0.5611,-0.5611,-0.5596,-0.559,-0.5572,-0.556,-0.5549,-0.5528,-0.5525,-0.5504,-0.55,-0.549,-0.5485,-0.5475,-0.5476,-0.5473,-0.545,-0.5484,-0.5537,-0.5542,-0.5472,-0.5472,-0.5472,0,-0.569,-0.5675,-0.5676,-0.5668,-0.5639,-0.564,-0.5628,-0.5609,-0.5602,-0.559,-0.5585,-0.5572,-0.5565,-0.5556,-0.5531,-0.5518,-0.5531,-0.5507,-0.5521,-0.5521,-0.5524,-0.5525,-0.5578,-0.5521,-0.5521,-0.5521,-0.5521,0,-0.5727,-0.573,-0.5695,-0.5695,-0.5699,-0.5671,-0.5675,-0.5659,-0.5643,-0.564,-0.5612,-0.561,-0.5578,-0.5572,-0.5552,-0.5553,-0.555,-0.554,-0.5535,-0.5542,-0.5544,-0.5538,-0.5536,-0.5522,-0.5522,-0.5522,-0.5522,0,-0.5776,-0.5752,-0.5751,-0.5724,-0.5718,-0.5721,-0.5698,-0.5697,-0.568,-0.5676,-0.5674,-0.5646,-0.5637,-0.5612,-0.5597,-0.5584,-0.559,-0.558,-0.5597,-0.5593,-0.5608,-0.5607,-0.566,-0.5665,-0.5606,-0.5606,-0.5607,0,-0.5801,-0.5803,-0.5777,-0.5773,-0.5762,-0.5757,-0.575,-0.5723,-0.5717,-0.5697,-0.5699,-0.5688,-0.5679,-0.5667,-0.5645,-0.5634,-0.5623,-0.5643,-0.5621,-0.5629,-0.5624,-0.5624,-0.5625,-0.5647,-0.5648,-0.5649,-0.5649,0,-0.5848,-0.5836,-0.5828,-0.5816,-0.5809,-0.5798,-0.5786,-0.5784,-0.5753,-0.5748,-0.574,-0.5732,-0.5718,-0.5708,-0.5693,-0.5681,-0.566,-0.5656,-0.5659,-0.5666,-0.5676,-0.5671,-0.5609,-0.5655,-0.5654,-0.5654,-0.5654,-0.5653,-0.5885,-0.5886,-0.5868,-0.586,-0.5848,-0.5837,-0.5836,-0.5818,-0.5811,-0.5797,-0.5781,-0.5775,-0.5757,-0.5735,-0.5724,-0.5719,-0.5708,-0.5711,-0.5712,-0.5714,-0.5718,-0.5677,-0.5716,-0.5716,-0.5716,-0.5716,-0.5715,0,-0.5931,-0.5918,-0.5911,-0.5895,-0.5889,-0.587,-0.5856,-0.5852,-0.5847,-0.5832,-0.5824,-0.5814,-0.5805,-0.5783,-0.5771,-0.5771,-0.5762,-0.5769,-0.5769,-0.5767,-0.5728,-0.5727,-0.5778,-0.5778,-0.5777,-0.5777,-0.5777,-0.5777,-0.5954,-0.5954,-0.5941,-0.5936,-0.5923,-0.5917,-0.591,-0.59,-0.5888,-0.5879,-0.5872,-0.5858,-0.584,-0.5828,-0.5818,-0.5812,-0.5809,-0.582,-0.5811,-0.5775,-0.5769,-0.5764,-0.5763,-0.582,-0.582,-0.585,-0.585,-0.5851]}]]